Wellsville, NY

5:07 AM EDT on March 24, 2017 (GMT -0400)
Wellsville Municipal-Tarantine

Weather History for KELZ - March, 2014

Change the Weather History Date:

Saturday, March 29, 2014

  Actual Average (KDSV) Record (KDSV)
Temperature  
Mean Temperature 34 °F -  
Max Temperature 39 °F 51 °F 76 °F (1989)
Min Temperature 30 °F 30 °F 9 °F (1959)
Degree Days  
Heating Degree Days 30    
Moisture  
Dew Point 30 °F    
Average Humidity 88    
Maximum Humidity 93    
Minimum Humidity 73    
Precipitation  
Precipitation 0.77 in - - ()
Sea Level Pressure  
Sea Level Pressure 30.03 in    
Wind  
Wind Speed 7 mph (NE)    
Max Wind Speed 15 mph    
Max Gust Speed 20 mph    
Visibility 7 miles    
Events Rain , Snow    
Averages and records for this station are not official NWS values.
T = Trace of Precipitation, MM = Missing Value Source: NWS Daily Summary

Daily Weather History Graph

Daily Weather History Graph

Search for Another Location

Airport or City:

Trip Planner

Search our weather history database for the weather conditions in past years. The results will help you decide how hot, cold, wet, or windy it might be!

Date:

Astronomy

Mar. 29, 2014 Rise Set
Actual Time 6:59 AM EDT 7:34 PM EDT
Civil Twilight 6:31 AM EDT 8:02 PM EDT
Nautical Twilight 5:58 AM EDT 8:35 PM EDT
Astronomical Twilight 5:24 AM EDT 9:10 PM EDT
Moon 6:08 AM EDT (3/29) 6:36 PM EDT (3/29)
Length of Visible Light 13h 30m
Length of Day
12h 34m
Waning Crescent, 2% of the Moon is Illuminated
Mar 29
Waning Crescent
Mar 30
New
Apr 7
First Quarter
Apr 15
Full
Apr 22
Last Quarter

Hourly Weather History & Observations

Time (EDT) Temp. Windchill Dew Point Humidity Pressure Visibility Wind Dir Wind Speed Gust Speed Precip Events Conditions
12:09 AM 33.1 °F 26.9 °F 30.9 °F 92% 30.13 in 2.5 mi North 6.9 mph - N/A   Overcast
12:24 AM 32.0 °F 25.6 °F 30.0 °F 92% 30.14 in 1.2 mi Variable 6.9 mph - N/A   Overcast
12:44 AM 32.0 °F 24.8 °F 30.0 °F 92% 30.15 in 2.5 mi North 8.1 mph - N/A   Overcast
12:52 AM 32.0 °F 27.5 °F 30.2 °F 93% 30.16 in 3.0 mi North 4.6 mph - N/A   Overcast
12:56 AM 32.0 °F 28.7 °F 30.0 °F 92% 30.19 in 3.0 mi North 3.5 mph - N/A   Overcast
1:16 AM 32.0 °F 25.6 °F 30.0 °F 92% 30.16 in 2.5 mi NNW 6.9 mph - N/A   Overcast
1:30 AM 32.0 °F - 30.0 °F 92% 30.16 in 4.0 mi Calm Calm - N/A   Overcast
1:56 AM 32.0 °F - 30.0 °F 92% 30.21 in 5.0 mi Calm Calm - N/A   Overcast
2:33 AM 32.0 °F - 30.0 °F 92% 30.15 in 6.0 mi Calm Calm - N/A   Overcast
2:53 AM 32.0 °F - 28.4 °F 87% 30.15 in 8.0 mi Calm Calm - N/A   Overcast
2:56 AM 32.0 °F - 30.0 °F 92% 30.19 in 9.0 mi Calm Calm - N/A   Overcast
3:41 AM 32.0 °F 26.4 °F 28.9 °F 88% 30.14 in 10.0 mi NE 5.8 mph - N/A   Overcast
3:56 AM 32.0 °F 27.5 °F 28.9 °F 88% 30.18 in 10.0 mi NNE 4.6 mph - N/A   Overcast
4:51 AM 32.0 °F 25.6 °F 28.4 °F 87% 30.11 in 10.0 mi ENE 6.9 mph - N/A   Overcast
4:56 AM 32.0 °F 25.6 °F 28.9 °F 88% 30.15 in 10.0 mi NE 6.9 mph - N/A   Overcast
5:56 AM 32.0 °F 26.4 °F 28.9 °F 88% 30.17 in 10.0 mi ENE 5.8 mph - N/A   Overcast
6:19 AM 32.0 °F 24.8 °F 28.9 °F 88% 30.13 in 10.0 mi ENE 8.1 mph - N/A   Overcast
6:37 AM 32.0 °F 25.6 °F 28.9 °F 88% 30.13 in 10.0 mi East 6.9 mph - N/A   Overcast
6:56 AM 32.0 °F 25.6 °F 28.9 °F 88% 30.19 in 10.0 mi East 6.9 mph - N/A   Overcast
7:56 AM 32.0 °F 26.4 °F 28.9 °F 88% 30.21 in 10.0 mi ESE 5.8 mph - N/A   Overcast
8:56 AM 33.1 °F 24.4 °F 28.9 °F 85% 30.19 in 10.0 mi East 11.5 mph - N/A   Overcast
9:20 AM 33.1 °F 25.5 °F 30.0 °F 89% 30.12 in 10.0 mi ESE 9.2 mph - N/A   Overcast
9:36 AM 33.1 °F 24.4 °F 30.0 °F 89% 30.11 in 10.0 mi East 11.5 mph - N/A   Overcast
9:52 AM 33.8 °F 26.4 °F 28.4 °F 81% 30.11 in 10.0 mi ESE 9.2 mph 17.3 mph N/A   Overcast
9:56 AM 33.1 °F 24.9 °F 28.9 °F 85% 30.17 in 10.0 mi ESE 10.4 mph - N/A   Overcast
10:20 AM 34.0 °F 26.0 °F 30.0 °F 85% 30.11 in 10.0 mi East 10.4 mph - N/A   Overcast
10:56 AM 34.0 °F 26.0 °F 30.0 °F 85% 30.15 in 10.0 mi SE 10.4 mph - N/A   Overcast
11:56 AM 37.0 °F 31.6 °F 30.9 °F 79% 30.13 in 10.0 mi ESE 6.9 mph - N/A   Overcast
12:41 PM 37.9 °F 32.1 °F 30.9 °F 76% 30.04 in 10.0 mi ESE 8.1 mph - N/A   Overcast
12:56 PM 37.9 °F 32.7 °F 30.9 °F 76% 30.10 in 10.0 mi ENE 6.9 mph - N/A   Overcast
1:56 PM 39.0 °F 32.3 °F 32.0 °F 76% 30.06 in 10.0 mi ENE 10.4 mph - N/A   Overcast
2:19 PM 39.0 °F 32.8 °F 30.9 °F 73% 30.00 in 10.0 mi East 9.2 mph - N/A   Overcast
2:31 PM 37.9 °F 32.1 °F 32.0 °F 79% 29.98 in 10.0 mi East 8.1 mph - 0.00 in Rain Light Rain
2:56 PM 37.0 °F 29.8 °F 30.9 °F 79% 30.02 in 10.0 mi ENE 10.4 mph - 0.00 in   Overcast
3:45 PM 36.0 °F 30.3 °F 30.9 °F 82% 29.93 in 10.0 mi ENE 6.9 mph - N/A   Overcast
3:56 PM 35.1 °F 27.4 °F 30.9 °F 85% 29.99 in 7.0 mi East 10.4 mph - 0.00 in Rain Light Rain
4:05 PM 35.1 °F 27.9 °F 30.9 °F 85% 29.93 in 9.0 mi East 9.2 mph - 0.00 in Rain Light Freezing Rain
4:20 PM 35.1 °F 28.6 °F 30.9 °F 85% 29.92 in 9.0 mi ENE 8.1 mph - 0.00 in Rain Light Rain
4:34 PM 34.0 °F 27.2 °F 30.9 °F 89% 29.92 in 7.0 mi ENE 8.1 mph - 0.01 in Rain Light Rain
4:56 PM 34.0 °F 25.0 °F 30.9 °F 89% 29.97 in 5.0 mi ENE 12.7 mph - 0.02 in Rain Light Rain
5:11 PM 34.0 °F 26.0 °F 30.9 °F 89% 29.90 in 5.0 mi ENE 10.4 mph - 0.00 in Rain Light Rain
5:31 PM 33.1 °F 24.9 °F 30.9 °F 92% 29.89 in 3.0 mi ENE 10.4 mph - 0.01 in Rain Light Rain
5:56 PM 33.1 °F 26.1 °F 30.9 °F 92% 29.95 in 5.0 mi NE 8.1 mph - 0.02 in Rain Light Rain
6:56 PM 33.1 °F 25.5 °F 30.9 °F 92% 29.92 in 6.0 mi NE 9.2 mph - 0.05 in Rain Rain
7:03 PM 33.1 °F 25.5 °F 30.9 °F 92% 29.86 in 6.0 mi NE 9.2 mph - 0.01 in Rain Rain
7:49 PM 32.0 °F 22.1 °F 30.0 °F 92% 29.84 in 10.0 mi NNE 13.8 mph - 0.09 in   Overcast
7:56 PM 32.0 °F 21.6 °F 30.0 °F 92% 29.91 in 8.0 mi NNE 15.0 mph - 0.11 in   Overcast
8:04 PM 33.1 °F 23.0 °F 30.0 °F 89% 29.84 in 8.0 mi NNE 15.0 mph - 0.01 in Rain Light Freezing Rain
8:39 PM 32.0 °F 24.2 °F 30.0 °F 92% 29.84 in 7.0 mi NNE 9.2 mph - 0.09 in Rain Light Freezing Rain
8:56 PM 32.0 °F 24.2 °F 30.0 °F 92% 29.90 in 7.0 mi North 9.2 mph - 0.14 in Rain Light Freezing Rain
9:56 PM 32.0 °F 23.6 °F 30.0 °F 92% 29.88 in 8.0 mi North 10.4 mph - 0.18 in Rain Light Freezing Rain
10:42 PM 32.0 °F 24.2 °F 30.0 °F 92% 29.80 in 4.0 mi North 9.2 mph - 0.11 in Snow Light Snow
10:46 PM 32.0 °F 23.0 °F 30.0 °F 92% 29.80 in 2.5 mi North 11.5 mph - 0.11 in Snow Light Snow
10:56 PM 32.0 °F 24.8 °F 30.0 °F 92% 29.86 in 2.5 mi North 8.1 mph - 0.14 in Snow Light Snow
11:18 PM 30.9 °F 21.7 °F 28.9 °F 92% 29.79 in 1.5 mi North 11.5 mph 19.6 mph 0.04 in Snow Light Snow
11:54 PM 30.2 °F 21.3 °F 28.4 °F 93% 29.78 in 2.5 mi North 10.4 mph - 0.11 in Snow Light Snow
11:56 PM 30.0 °F 20.0 °F 28.0 °F 92% 29.84 in 2.5 mi North 12.7 mph 18.4 mph 0.11 in Snow Light Snow